Home   Weather   Wageningen   Past weeks

Flag for Netherlands Past Weather in Wageningen, Netherlands — Yesterday and Last 2 Weeks

32 °F

Ice fog.

Feels Like: 32 °F
Forecast: 41 / 48 °F
Wind: 1 mph from Southeast

Location: Deelen

Current Time: Oct 23, 2016 at 10:05:50 AM

Latest Report: Oct 23, 2016 at 9:25 AM

Visibility: 0 mi

Pressure: 29.95 "Hg

Humidity: 93%

Dew Point: 30 °F

Location of WageningenLocation

Past Weather in Wageningen — Graph


Wageningen Temperature Yesterday

Maximum temperature yesterday: 50 °F (at 2:55 PM)
Minimum temperature yesterday: 34 °F (at 11:55 PM)
Average temperature yesterday: 45 °F

High & Low Weather Summary for the Past Weeks

High66 °F (Oct 16, 3:25 PM)100% (Oct 9, 3:25 AM)30.30 "Hg (Oct 9, 3:25 AM)
Low28 °F (Oct 23, 7:25 AM)39% (Oct 8, 2:55 PM)29.65 "Hg (Oct 15, 1:55 AM)
Average47 °F86%30.04 "Hg
* Reported Oct 8 8:25 AM — Oct 23 8:55 AM, Wageningen, Weather by CustomWeather, © 2016

Note: Actual official high and low records may vary slightly from our data, if they occured in-between our weather recording intervals... More about our weather records


Wageningen Weather History for the Previous 24 Hours

Scroll right to see more
Time TempWeatherWind HumidityBarometerVisibility
8:55 AM
Sun, Oct 23
30 °FIce fog.No wind100%29.92 "Hg0 mi
8:25 AM28 °FIce fog.1 mph100%29.92 "Hg0 mi
7:55 AM28 °FIce fog.2 mph100%29.92 "Hg1 mi
7:25 AM28 °FIce fog.1 mph100%29.92 "Hg3 mi
6:55 AM30 °FIce fog.1 mph93%29.92 "Hg1 mi
6:25 AM30 °FIce fog.1 mph93%29.92 "Hg3 mi
5:55 AM30 °FIce fog.1 mph93%29.95 "Hg2 mi
5:25 AM30 °FIce fog.1 mph93%29.95 "Hg3 mi
4:55 AM30 °FIce fog.1 mph93%29.95 "Hg4 mi
4:25 AM30 °FIce fog.1 mph100%29.95 "Hg3 mi
3:55 AM30 °FIce fog.1 mph100%29.95 "Hg4 mi
3:25 AM32 °FIce fog.2 mph93%29.95 "Hg3 mi
2:55 AM32 °FIce fog.1 mph93%29.95 "Hg4 mi
2:25 AM32 °FIce fog.3 mph93%29.95 "Hg4 mi
1:55 AM32 °FIce fog.1 mph93%29.98 "Hg4 mi
1:25 AM32 °FIce fog.2 mph100%29.98 "Hg2 mi
12:55 AM34 °FFog.1 mph100%29.98 "Hg4 mi
12:25 AM34 °FFog.1 mph93%29.98 "Hg3 mi
11:55 PM
Sat, Oct 22
34 °FFog.2 mph93%29.98 "Hg2 mi
11:25 PM36 °FFog.2 mph100%29.98 "Hg3 mi
10:55 PM36 °FFog.2 mph93%29.98 "Hg2 mi
10:25 PM37 °FFog.1 mph93%29.98 "Hg1 mi
9:55 PM37 °FFog.1 mph100%29.98 "Hg1 mi
9:25 PM39 °FFog.1 mph93%29.98 "Hg0 mi
8:55 PM41 °FFog.1 mph93%29.98 "Hg1 mi
8:25 PM43 °FFog.2 mph93%29.98 "Hg4 mi
7:55 PM45 °FFog.1 mph93%29.98 "Hg5 mi
7:25 PM45 °FOvercast.1 mph93%29.98 "HgN/A
6:55 PM46 °FOvercast.No wind87%29.98 "HgN/A
6:25 PM46 °FOvercast.2 mph82%29.98 "HgN/A
5:55 PM48 °FOvercast.2 mph76%29.98 "HgN/A
5:25 PM48 °FMostly cloudy.3 mph76%29.95 "HgN/A
4:55 PM48 °FOvercast.5 mph76%29.95 "HgN/A
4:25 PM48 °FBroken clouds.2 mph76%29.95 "HgN/A
3:55 PM50 °FBroken clouds.5 mph67%29.95 "HgN/A
3:25 PM50 °FBroken clouds.5 mph67%29.95 "HgN/A
2:55 PM50 °FPassing clouds.6 mph71%29.95 "HgN/A
2:25 PM48 °FPassing clouds.6 mph71%29.98 "HgN/A
1:55 PM46 °FBroken clouds.6 mph87%29.98 "HgN/A
1:25 PM46 °FMore clouds than sun.2 mph87%29.98 "HgN/A
12:55 PM46 °FFog.3 mph87%29.98 "Hg6 mi
12:25 PM46 °FMostly cloudy.3 mph87%29.98 "HgN/A
11:55 AM45 °FFog.5 mph87%29.98 "Hg6 mi
11:25 AM45 °FFog.5 mph87%29.98 "Hg6 mi
10:55 AM45 °FFog.6 mph93%29.95 "Hg6 mi
10:25 AM45 °FFog.6 mph87%29.95 "Hg6 mi
Weather by CustomWeather, © 2016

See weather overviewHow to use our weather pages